Wind_Speed
46 44 41 39 38 36 34 31 29 27 24 23 22 19 18 17 16 15 13 11 9 8 8 8 9 10 11 13 14 15 17 19 19 20 21 22 22 23 23 24 25 26 27 27 28 29 29 29 30 29 28 27 26 25 24 23 23 23 23 22 21 20 19
49 47 45 42 40 39 36 34 32 31 28 26 25 23 20 19 18 17 16 13 11 10 9 8 8 8 10 11 12 13 14 16 17 18 19 20 21 21 22 23 23 24 25 26 26 27 27 28 27 27 27 26 25 23 22 21 21 21 21 20 20 18 17
51 50 48 45 43 41 39 36 35 34 32 29 28 25 23 21 20 19 18 16 14 12 11 9 8 7 8 9 11 11 12 14 15 16 17 18 19 20 20 21 22 23 23 24 25 25 25 25 25 25 24 24 23 21 20 20 20 19 19 19 18 17 15
52 52 50 48 46 44 42 40 38 36 35 33 30 28 26 24 24 22 21 19 17 15 13 11 10 8 8 8 9 10 11 12 13 14 15 17 17 18 18 19 19 20 21 22 23 23 23 23 23 22 22 21 21 20 19 18 18 18 18 17 17 16 15
54 54 52 51 49 47 46 44 42 40 38 37 34 31 29 28 27 26 24 22 20 18 16 14 12 11 9 9 9 9 10 11 12 13 14 15 16 16 16 17 17 17 18 19 20 21 21 21 21 20 20 19 19 18 18 17 17 17 17 16 16 15 14
56 56 55 54 52 50 49 47 46 44 42 40 37 34 33 31 30 28 26 25 23 21 20 18 15 13 12 11 10 10 10 11 11 12 13 13 14 14 15 15 15 15 15 16 17 18 19 19 19 18 18 17 17 17 17 16 16 16 16 16 16 15 13
59 58 57 57 55 53 51 50 49 47 45 43 41 38 36 35 33 31 29 28 26 24 23 22 20 17 15 14 13 12 11 11 12 12 12 13 13 13 12 13 13 14 13 13 14 15 16 17 17 17 17 16 16 16 16 15 15 15 15 15 15 14 13
61 61 59 58 57 54 53 52 51 49 48 46 44 42 40 38 37 35 33 31 29 27 26 25 23 21 19 18 16 14 13 13 13 13 13 13 13 13 12 12 11 11 12 12 12 12 13 14 15 16 16 15 15 15 15 15 15 15 15 15 15 14 13
64 62 61 60 59 57 55 54 53 52 51 49 47 45 43 41 40 38 35 34 32 30 28 26 24 23 21 19 18 17 16 15 14 14 14 14 14 14 13 13 12 10 10 10 10 10 10 11 12 13 14 14 14 14 14 14 14 14 14 14 14 13 12
68 65 63 62 61 60 57 56 56 56 55 53 50 48 46 44 42 40 38 36 34 32 29 28 26 24 22 20 19 19 18 17 16 15 14 14 14 14 14 14 13 12 11 10 9 9 9 9 10 10 11 12 13 14 14 14 13 13 13 13 13 12 11
72 68 65 65 64 63 61 59 59 59 58 56 54 52 49 47 45 43 41 38 36 34 31 30 29 27 24 22 22 21 20 19 18 16 15 14 14 14 13 13 13 13 13 12 10 9 9 9 9 9 9 10 10 11 12 13 13 13 13 12 12 12 11
72 70 68 68 68 66 65 62 61 62 63 60 57 55 52 49 47 45 43 41 39 36 34 33 32 31 29 27 25 24 22 22 20 19 17 16 14 14 13 13 13 12 12 12 12 11 10 10 9 9 9 9 9 9 9 9 10 10 11 11 11 11 10
70 72 70 70 70 70 69 67 66 67 66 63 59 57 54 51 50 48 46 43 41 38 36 36 35 34 34 32 30 27 25 23 22 21 21 19 17 16 15 14 13 13 12 12 12 12 11 11 11 10 10 10 9 9 9 8 8 8 8 9 9 9 8
70 73 73 71 71 73 72 70 70 68 66 62 59 58 56 53 52 51 48 45 43 39 37 38 38 37 37 36 33 31 28 27 26 25 23 22 20 19 17 16 15 15 14 14 14 13 13 12 12 12 12 11 11 11 11 10 10 9 8 8 8 8 7
71 73 75 73 72 74 74 72 71 68 64 62 60 59 58 55 53 53 51 50 48 44 40 40 41 42 41 40 37 35 33 31 30 28 25 24 23 22 21 20 18 17 17 17 16 15 15 14 14 14 14 14 14 13 13 12 12 11 11 10 10 9 9
73 71 76 77 73 74 76 74 72 68 65 64 62 59 59 57 55 55 55 53 52 49 45 43 45 47 47 45 42 39 37 36 34 31 29 28 27 26 25 23 21 20 21 20 20 19 18 17 16 17 17 17 17 16 16 15 15 14 13 12 12 12 12
78 71 74 80 77 75 76 75 74 70 67 66 63 61 60 58 57 56 56 55 54 54 53 50 49 52 52 49 44 42 41 39 37 34 33 32 31 30 29 28 27 25 25 25 24 23 22 20 19 20 20 21 21 20 20 19 18 17 16 15 15 14 14
82 74 75 82 81 77 75 76 75 71 67 67 65 62 61 60 58 57 57 56 56 57 58 57 54 53 53 51 47 44 44 42 39 38 37 36 35 34 33 33 31 30 28 26 25 25 24 23 22 22 23 23 23 23 23 22 22 22 21 20 19 18 18
87 81 79 83 84 81 77 76 77 73 69 68 67 64 62 60 59 59 59 60 61 62 62 62 60 56 55 53 50 48 47 45 42 41 40 39 39 38 37 36 34 34 32 28 24 23 25 25 25 25 26 26 26 25 25 25 25 26 25 24 23 23 22
90 90 86 83 84 84 80 78 78 75 70 69 68 66 64 61 60 60 62 64 67 68 67 65 64 61 59 56 53 51 50 48 45 44 43 42 42 40 39 38 37 36 35 33 28 25 26 28 28 28 28 29 29 29 28 28 28 28 28 27 27 26 25
92 94 91 86 85 85 82 79 80 78 74 71 69 68 66 64 63 63 65 68 70 72 71 68 67 65 63 60 56 54 53 50 48 47 45 45 44 42 41 41 39 37 37 37 34 31 32 33 33 32 31 32 32 31 30 30 31 30 29 29 29 29 29
93 95 94 89 88 88 85 82 81 80 78 75 72 71 70 68 67 67 69 71 73 74 73 70 69 68 66 63 60 58 56 53 51 49 48 47 46 45 45 44 43 41 39 39 38 37 37 37 36 36 36 36 36 35 33 32 31 31 32 32 31 31 32
94 94 94 92 90 90 89 86 84 82 81 80 78 76 74 72 71 71 72 73 75 75 74 72 70 69 67 66 63 61 59 56 54 51 50 49 48 47 47 47 45 44 43 41 40 39 39 37 37 38 39 40 40 38 37 36 34 33 34 35 35 35 35
94 93 95 94 92 92 92 89 87 86 85 84 82 80 78 76 74 73 74 75 76 76 74 72 71 70 69 68 66 64 61 59 56 54 52 51 50 49 50 49 46 46 47 46 44 43 41 39 38 39 41 42 42 40 40 40 40 38 37 36 37 37 37
96 96 96 95 95 95 95 92 89 89 88 86 84 83 82 80 77 75 75 76 78 78 75 73 72 71 70 69 68 66 63 61 59 57 55 54 53 53 54 53 49 47 48 49 49 48 45 43 42 41 43 45 44 42 42 42 43 43 42 41 41 40 39
97 99 97 96 96 97 99 97 92 91 92 90 86 85 85 84 80 77 76 77 80 81 78 75 73 72 70 69 68 67 66 64 61 59 57 57 58 58 58 57 54 51 49 50 52 51 49 48 47 46 46 47 46 46 45 44 44 45 44 45 45 45 43
96 100 99 98 97 97 100 102 97 94 94 94 90 87 86 87 85 81 79 78 80 82 82 80 77 74 72 70 69 69 69 68 64 61 59 59 61 63 63 60 58 58 58 56 55 54 52 51 51 50 49 49 50 50 49 48 48 47 46 46 47 47 48
95 99 100 100 100 98 99 102 102 99 97 96 93 89 86 88 88 86 84 81 81 82 84 84 81 78 75 73 71 71 71 71 68 64 61 60 62 67 67 60 56 61 65 62 58 57 55 53 53 53 51 51 53 54 53 51 51 51 51 50 49 49 51
98 101 102 101 101 101 101 101 103 102 100 98 96 92 87 86 88 90 89 87 85 85 85 85 84 82 79 77 75 74 74 74 73 70 65 61 63 70 71 62 57 63 69 66 61 60 60 57 56 55 53 53 56 57 56 56 55 54 55 55 53 52 52
102 104 105 103 102 104 105 104 104 102 100 99 99 95 90 87 87 89 91 92 91 90 88 87 85 83 81 80 79 78 77 77 76 75 72 69 71 75 74 68 66 70 71 67 63 64 63 59 58 57 54 54 58 59 58 59 59 57 58 59 59 57 55
103 105 107 106 104 105 106 107 106 104 101 100 101 99 95 91 88 87 90 92 93 92 91 89 87 85 83 82 82 81 81 80 80 79 78 78 79 79 76 74 74 74 71 68 66 66 64 61 60 58 55 56 59 59 58 60 62 61 61 62 64 63 59
102 106 109 109 108 106 107 108 109 108 105 102 102 102 100 97 93 89 89 91 93 94 93 91 89 86 84 84 84 84 84 84 83 83 82 82 83 83 80 78 78 76 73 70 69 68 67 64 63 61 58 58 61 61 60 61 63 64 63 65 67 67 65
100 105 109 111 110 108 108 108 109 111 110 108 105 104 103 102 99 95 91 90 92 94 94 93 91 89 87 85 85 86 86 86 86 86 85 85 84 84 83 82 81 79 76 74 73 72 70 67 66 64 62 61 63 64 64 65 66 67 68 68 67 68 68
98 103 108 111 111 110 109 108 108 110 112 113 112 109 107 105 104 101 97 93 92 94 95 95 95 93 91 89 88 88 88 88 88 89 89 88 87 86 85 85 84 83 81 79 77 76 74 71 69 68 66 66 67 67 67 68 69 70 71 72 70 70 71
94 100 105 110 111 110 109 108 109 109 111 113 114 114 112 110 108 106 103 99 96 95 96 97 97 96 95 93 92 92 91 91 91 91 91 92 91 90 89 88 88 87 85 84 83 81 80 77 75 73 71 71 72 72 72 72 73 72 73 75 75 74 74
90 94 101 107 110 110 108 108 107 108 110 112 114 116 116 114 112 111 109 105 101 98 97 97 98 99 98 97 96 96 95 95 95 94 94 94 93 93 93 92 91 90 89 88 87 87 86 84 82 80 77 75 76 76 77 76 77 77 76 77 77 77 76
89 91 96 103 108 110 109 108 107 106 109 111 113 115 117 117 116 114 112 110 107 104 101 100 99 100 100 100 100 99 99 99 99 98 97 97 96 95 95 95 95 94 93 92 91 91 91 90 89 87 84 82 80 80 80 80 79 78 77 77 76 76 76
91 91 93 98 104 108 110 109 108 106 107 110 113 114 116 118 118 117 115 113 112 109 107 104 102 102 103 103 103 103 103 103 103 102 102 101 100 99 98 98 97 98 97 96 95 94 94 94 94 93 91 89 87 85 84 84 84 82 80 79 78 77 77
Wind_Direction
216 218 218 214 211 211 210 208 209 210 208 205 201 195 188 186 188 190 189 183 173 161 146 134 124 113 102 94 89 86 83 82 82 87 92 96 99 102 103 105 108 110 114 118 123 129 134 137 139 140 141 140 139 137 135 134 134 134 132 129 125 120 115
214 215 217 216 214 212 211 209 209 211 209 208 206 200 194 191 191 193 195 191 185 178 168 157 144 133 122 111 102 96 91 87 84 84 89 95 99 103 106 109 111 113 116 120 124 129 134 138 140 141 142 142 141 140 138 137 137 138 137 135 131 126 120
214 214 214 215 216 214 212 210 211 211 211 210 209 204 199 196 195 196 197 197 193 188 182 174 165 154 143 132 121 112 104 97 93 88 87 90 96 102 107 111 114 116 119 123 127 130 134 138 141 143 144 144 144 143 143 142 142 143 142 141 138 133 126
213 214 213 214 216 216 214 213 213 213 213 212 211 207 204 202 200 198 199 201 199 195 191 185 180 174 166 155 143 132 121 113 106 99 93 90 91 96 102 109 114 119 122 125 129 133 136 138 141 144 146 147 148 147 147 148 147 148 147 147 146 142 135
211 213 214 214 215 216 215 214 214 214 215 214 212 209 207 207 206 202 200 202 203 201 196 193 191 188 183 176 167 154 142 131 122 113 106 99 94 93 96 102 109 117 123 127 132 136 140 142 144 146 148 149 151 152 153 154 154 154 154 153 153 151 147
208 212 215 216 215 215 216 216 215 214 214 214 213 212 210 210 211 207 202 202 204 204 201 198 197 197 195 190 184 175 164 152 141 131 121 113 105 99 96 98 102 110 119 128 134 138 142 147 149 151 153 154 155 157 158 160 161 162 163 162 162 162 160
208 210 215 217 216 214 215 217 217 216 215 214 212 212 211 211 212 211 207 204 203 204 203 202 201 202 203 200 195 189 181 171 160 150 140 131 123 115 108 103 102 105 111 120 131 140 146 150 153 157 160 161 163 164 165 167 168 170 170 169 170 171 171
209 210 213 217 217 216 215 217 219 219 218 216 214 213 213 213 213 212 211 208 206 204 205 206 206 205 207 206 202 197 193 186 176 166 158 150 142 135 128 122 116 112 111 114 122 134 145 153 157 161 164 166 168 170 172 173 175 176 175 175 177 178 179
210 209 212 216 218 217 215 216 218 220 220 219 217 215 215 215 214 213 213 212 210 207 206 209 211 210 211 211 209 205 201 197 190 181 173 166 158 152 147 142 138 133 127 123 123 127 136 149 158 165 169 173 176 177 178 179 179 180 179 180 181 182 183
211 211 213 216 217 217 215 215 217 219 220 220 219 217 216 217 216 215 214 214 214 212 209 211 215 215 215 216 216 213 209 206 201 193 186 180 172 166 161 158 155 153 151 147 144 141 140 145 154 163 171 177 181 185 188 190 190 190 190 189 189 189 189
213 213 214 216 216 216 215 215 216 218 219 219 219 218 217 218 218 217 216 216 216 216 214 214 216 217 217 219 220 218 215 213 210 204 198 193 186 181 175 172 170 168 167 166 166 166 164 161 161 163 170 175 181 187 192 197 201 204 205 205 205 205 205
214 213 213 215 216 215 215 215 215 217 218 217 217 218 218 217 218 219 218 217 218 218 219 218 218 219 219 219 221 220 218 217 215 212 207 202 197 194 190 187 185 184 184 184 182 181 181 182 183 180 180 181 183 187 191 197 202 207 211 214 216 217 218
213 212 211 214 215 215 215 215 215 217 217 216 216 217 218 218 219 220 219 218 218 220 223 223 223 223 222 220 220 220 221 221 219 217 214 208 204 202 200 198 197 197 200 201 202 201 199 199 198 198 198 198 199 199 200 203 205 207 211 214 216 219 221
211 211 210 212 215 216 215 216 217 218 218 218 217 218 219 219 220 221 220 219 218 218 222 226 227 227 226 224 222 220 221 222 221 220 218 214 211 208 206 206 206 207 209 210 213 215 216 218 216 214 213 213 215 215 214 215 217 217 218 216 216 218 217
211 211 211 211 214 216 216 216 218 219 219 219 219 219 220 220 221 221 221 221 219 216 216 221 227 230 229 227 225 222 221 222 221 220 219 218 218 216 212 212 214 218 218 216 217 218 220 223 225 226 226 225 225 226 226 227 228 228 228 226 226 227 225
212 212 211 210 212 217 218 217 218 219 220 220 220 220 220 221 222 223 223 223 221 219 216 216 221 226 227 226 225 224 222 222 220 220 221 221 220 218 215 212 214 223 228 224 221 221 222 224 226 228 229 230 230 230 229 231 233 235 236 236 236 237 237
213 212 212 210 210 215 218 219 218 218 219 220 221 220 219 219 221 224 226 226 225 223 221 218 219 222 224 224 224 224 224 223 219 219 221 222 222 220 219 215 212 216 226 230 229 228 227 227 231 233 233 231 229 228 228 229 232 233 235 237 239 241 241
214 213 213 210 209 212 216 219 218 216 218 220 220 221 219 218 219 222 224 225 225 224 223 222 223 223 222 223 223 223 225 225 221 221 222 224 224 223 223 224 220 216 219 227 235 241 241 239 240 243 242 239 234 231 229 228 230 232 232 233 235 237 239
215 215 213 210 209 209 212 217 218 216 217 219 220 221 218 215 217 220 221 222 223 224 225 225 225 223 223 223 222 222 225 225 224 223 224 225 226 226 226 229 229 225 223 225 232 245 252 254 253 253 252 249 244 240 237 234 233 233 234 234 233 234 237
216 216 215 211 209 208 209 214 217 216 215 217 220 220 216 212 213 217 220 221 223 225 225 225 224 223 222 223 222 222 224 225 225 224 225 226 228 228 228 231 233 232 230 229 230 237 246 250 252 255 258 257 252 247 243 240 238 238 238 239 239 239 238
216 216 216 214 211 209 208 211 216 216 214 215 217 217 213 210 211 215 219 222 224 225 224 224 223 222 222 222 223 223 224 225 225 225 224 226 228 230 229 231 234 234 233 231 231 235 241 244 243 246 253 256 253 248 244 243 244 245 244 243 243 244 243
216 216 216 215 213 211 208 209 212 215 214 214 215 215 212 211 211 215 218 222 225 226 225 224 223 222 222 222 223 223 224 224 225 225 224 225 227 230 230 230 233 234 234 233 232 234 240 243 240 239 244 249 247 244 242 244 247 251 253 252 250 249 249
216 215 214 214 213 211 210 209 210 213 214 214 215 215 213 212 213 215 219 222 226 227 226 226 225 223 223 223 224 224 224 225 225 225 225 226 228 231 231 231 232 234 235 235 234 234 238 242 240 238 241 245 246 244 242 243 244 247 254 259 261 261 260
216 215 213 214 213 211 210 209 209 211 213 213 214 215 214 213 214 217 219 222 225 227 227 227 227 226 224 223 224 225 224 225 225 225 225 226 229 232 232 231 232 236 237 236 236 235 237 239 241 240 240 243 246 246 245 245 246 246 249 254 258 260 264
214 214 213 213 214 212 210 209 209 210 211 212 213 214 215 214 214 217 219 222 225 226 227 228 229 229 227 225 225 225 224 224 225 226 226 227 229 232 232 230 231 236 239 239 238 237 237 239 240 242 243 242 242 245 246 247 249 248 248 249 250 251 253
212 214 214 213 214 214 211 210 210 210 211 211 211 213 215 215 215 216 218 222 224 226 226 227 228 229 229 228 227 227 226 224 224 226 228 229 230 232 232 231 231 235 238 239 238 238 239 240 240 241 244 243 242 243 245 247 249 249 248 249 250 250 250
212 213 215 214 214 214 213 212 212 211 211 211 211 212 214 215 215 216 217 220 224 226 226 227 228 228 229 229 229 229 228 226 224 225 229 231 233 233 233 232 234 236 237 237 238 239 239 241 241 241 244 245 244 244 245 247 249 250 249 248 250 252 252
213 213 215 215 215 214 213 213 213 212 211 211 210 211 213 215 215 216 217 218 222 225 226 227 228 229 229 230 229 229 229 228 226 226 228 232 235 235 234 234 237 240 238 236 238 241 241 242 243 242 244 247 245 244 245 247 249 251 250 247 248 250 252
215 214 214 216 216 215 213 213 213 213 211 211 210 210 211 214 215 216 217 219 220 224 226 227 228 229 230 230 229 228 229 229 229 227 226 227 231 234 234 232 232 237 239 237 238 241 243 245 245 243 245 249 246 242 243 244 246 249 250 248 246 247 250
216 215 215 215 216 216 215 213 213 213 212 211 211 211 211 212 215 216 218 220 221 223 225 227 228 229 230 230 230 229 229 229 230 229 226 224 228 233 233 230 230 235 238 239 239 240 242 245 245 243 245 248 246 243 243 243 243 246 248 248 247 246 246
215 215 215 215 216 216 216 215 215 215 214 212 212 212 211 211 213 216 218 220 222 224 226 226 227 227 228 229 230 230 230 229 230 231 229 226 228 233 234 232 232 235 238 239 239 239 241 243 243 242 245 247 245 244 244 243 243 244 245 246 247 247 246
217 216 216 216 216 217 217 217 216 216 216 215 214 213 213 212 213 214 216 220 222 224 226 227 226 226 226 228 229 231 231 231 231 231 231 229 229 232 233 233 234 235 237 238 239 239 241 243 242 241 244 246 244 243 243 243 243 245 245 244 245 246 247
219 217 216 216 216 217 218 218 218 217 217 217 217 217 216 215 215 215 216 218 221 224 226 227 226 225 225 226 228 229 231 232 232 232 232 232 231 231 232 234 235 235 236 237 238 239 240 242 241 240 241 243 242 242 242 243 243 245 246 245 244 246 248
222 219 217 216 217 218 218 219 219 219 219 219 220 221 220 219 218 218 218 218 220 223 225 227 227 226 225 225 226 228 230 231 232 233 233 233 233 233 233 234 235 236 236 237 238 239 240 240 241 241 241 241 241 241 241 243 244 245 247 248 248 248 249
223 221 219 218 218 219 219 219 220 221 221 221 221 223 223 223 222 222 222 221 220 222 224 226 228 228 227 225 225 227 229 230 232 233 234 235 235 235 234 234 235 237 237 238 238 239 240 241 242 243 242 242 242 242 242 243 245 245 247 249 250 250 250
225 223 221 219 219 219 219 220 221 222 222 222 222 223 224 225 225 225 225 225 224 223 224 225 227 229 229 228 226 226 228 230 231 232 234 235 236 235 235 235 235 236 238 239 240 240 241 241 242 243 244 243 243 243 243 244 245 246 247 249 250 250 250
225 225 223 222 220 220 220 220 221 222 223 223 223 223 224 225 227 227 228 228 227 226 225 226 227 228 230 230 229 227 227 229 231 232 233 234 236 236 236 235 235 236 237 238 240 242 243 243 243 243 244 244 244 244 244 244 244 246 247 248 249 249 249
226 226 225 224 222 221 221 221 222 223 224 224 224 224 224 225 227 228 229 230 230 229 228 228 228 229 229 230 231 230 229 229 230 232 232 233 235 236 236 236 235 236 236 237 239 241 243 244 245 244 244 245 245 245 245 245 245 245 246 247 249 249 250
Height
10971 10973 10976 10978 10981 10983 10986 10989 10990 10992 10994 10996 10997 10998 10999 11000 11001 11002 11002 11003 11003 11002 11002 11002 11002 11002 11002 11001 11000 10999 10998 10998 10997 10997 10996 10996 10995 10995 10994 10994 10994 10994 10994 10995 10995 10997 10997 10998 10999 11000 11001 11003 11004 11005 11006 11007 11007 11007 11007 11008 11008 11008 11009
10966 10968 10971 10974 10977 10979 10983 10986 10988 10989 10991 10993 10995 10997 10998 10999 10999 11001 11001 11002 11002 11003 11002 11002 11002 11003 11002 11002 11002 11001 11000 10999 10999 10999 10999 10998 10998 10997 10997 10997 10997 10997 10997 10998 10998 10999 11000 11001 11001 11002 11003 11004 11005 11006 11007 11008 11008 11009 11009 11009 11010 11010 11010
10962 10963 10966 10970 10972 10975 10979 10982 10985 10986 10988 10990 10992 10994 10996 10997 10998 10999 11000 11001 11002 11002 11002 11003 11003 11003 11003 11003 11003 11003 11002 11001 11001 11001 11001 11001 11000 11000 11000 10999 11000 11000 11000 11000 11001 11001 11002 11003 11003 11004 11005 11005 11006 11007 11008 11009 11009 11010 11010 11011 11011 11012 11012
10957 10959 10962 10964 10967 10971 10974 10978 10981 10983 10985 10987 10989 10991 10993 10995 10996 10997 10998 11000 11001 11001 11002 11002 11003 11003 11003 11003 11004 11004 11003 11003 11003 11002 11002 11002 11002 11002 11002 11002 11002 11002 11002 11002 11003 11003 11004 11004 11005 11005 11006 11007 11007 11008 11009 11010 11010 11011 11012 11012 11013 11013 11014
10952 10955 10957 10959 10962 10966 10969 10972 10975 10978 10981 10983 10985 10988 10990 10991 10993 10995 10996 10998 10999 11000 11001 11002 11002 11003 11003 11003 11004 11004 11004 11004 11004 11004 11004 11003 11004 11004 11004 11004 11004 11004 11004 11004 11004 11005 11005 11006 11006 11007 11008 11008 11009 11009 11010 11011 11011 11012 11012 11013 11013 11014 11015
10946 10949 10951 10954 10957 10960 10963 10967 10969 10972 10975 10978 10981 10984 10986 10988 10990 10992 10994 10996 10997 10998 10999 11000 11001 11002 11002 11003 11003 11004 11004 11005 11005 11005 11005 11005 11005 11005 11005 11005 11006 11006 11006 11006 11006 11006 11007 11007 11008 11008 11009 11009 11010 11010 11011 11011 11012 11013 11013 11013 11014 11015 11015
10939 10943 10945 10948 10952 10955 10959 10962 10965 10968 10971 10974 10977 10980 10982 10984 10986 10989 10991 10993 10994 10996 10997 10998 10999 11000 11001 11002 11003 11003 11004 11004 11005 11005 11005 11005 11005 11006 11006 11006 11007 11007 11007 11008 11008 11008 11008 11008 11009 11009 11010 11010 11011 11011 11012 11012 11013 11013 11014 11014 11014 11015 11015
10933 10937 10940 10943 10947 10951 10954 10957 10960 10964 10967 10970 10973 10976 10978 10980 10982 10985 10987 10990 10992 10993 10995 10996 10997 10998 11000 11001 11002 11002 11003 11004 11004 11004 11005 11005 11005 11006 11006 11007 11007 11008 11008 11009 11009 11009 11009 11009 11010 11010 11011 11011 11012 11012 11013 11013 11013 11014 11014 11014 11015 11015 11015
10928 10931 10934 10937 10941 10945 10949 10952 10955 10958 10962 10965 10969 10972 10975 10977 10979 10982 10984 10987 10989 10991 10993 10994 10996 10997 10999 11001 11002 11002 11003 11003 11003 11004 11004 11004 11005 11005 11006 11006 11007 11008 11009 11009 11010 11010 11010 11010 11010 11011 11011 11012 11012 11013 11013 11014 11014 11014 11015 11015 11015 11015 11016
10921 10925 10929 10931 10935 10939 10944 10947 10949 10952 10956 10960 10964 10967 10970 10973 10976 10979 10981 10984 10987 10989 10991 10993 10995 10996 10998 11000 11001 11002 11002 11003 11003 11003 11003 11003 11004 11004 11005 11006 11007 11007 11008 11009 11010 11010 11011 11011 11011 11011 11012 11012 11013 11013 11014 11014 11015 11015 11015 11016 11016 11016 11016
10915 10919 10923 10926 10930 10934 10938 10941 10944 10947 10950 10954 10958 10962 10966 10969 10972 10976 10979 10982 10985 10987 10990 10991 10993 10995 10996 10998 10999 11000 11001 11002 11002 11003 11003 11003 11003 11004 11004 11005 11006 11007 11007 11008 11009 11010 11010 11011 11011 11012 11012 11013 11013 11013 11014 11014 11015 11015 11016 11016 11016 11016 11016
10908 10913 10917 10920 10924 10927 10931 10935 10938 10941 10944 10948 10953 10957 10960 10964 10968 10971 10975 10978 10982 10985 10987 10989 10990 10992 10994 10995 10996 10998 10999 11000 11001 11002 11002 11002 11003 11003 11004 11004 11005 11006 11006 11007 11008 11009 11009 11010 11011 11011 11012 11012 11013 11013 11013 11014 11014 11015 11015 11015 11016 11016 11016
10902 10907 10911 10915 10917 10921 10924 10928 10932 10935 10938 10943 10948 10952 10956 10960 10963 10966 10970 10974 10978 10982 10985 10987 10988 10990 10991 10992 10993 10995 10997 10998 11000 11000 11000 11001 11001 11001 11002 11003 11004 11005 11006 11006 11007 11008 11008 11009 11010 11011 11011 11012 11012 11013 11013 11013 11014 11014 11014 11015 11015 11015 11015
10897 10902 10906 10909 10911 10914 10918 10922 10926 10930 10934 10940 10944 10948 10951 10955 10958 10962 10966 10969 10973 10976 10980 10984 10986 10987 10988 10989 10991 10992 10993 10995 10996 10997 10998 10999 10999 10999 11000 11000 11001 11002 11003 11005 11006 11007 11007 11008 11009 11009 11010 11011 11011 11012 11012 11012 11013 11013 11013 11014 11014 11014 11014
10892 10896 10900 10904 10905 10907 10912 10917 10921 10925 10931 10936 10940 10944 10947 10951 10953 10956 10960 10963 10965 10968 10972 10977 10981 10983 10984 10985 10987 10988 10990 10991 10992 10993 10995 10996 10996 10997 10997 10997 10998 11000 11001 11002 11003 11005 11006 11006 11007 11008 11008 11009 11010 11010 11011 11011 11012 11012 11013 11013 11013 11014 11014
10888 10891 10894 10897 10899 10901 10906 10912 10916 10921 10926 10930 10934 10939 10943 10946 10948 10951 10954 10958 10961 10963 10966 10969 10973 10976 10978 10979 10982 10984 10986 10986 10988 10990 10991 10991 10991 10992 10992 10992 10993 10996 10998 10998 11000 11001 11002 11004 11005 11005 11006 11007 11007 11008 11009 11010 11010 11011 11011 11012 11012 11013 11013
10882 10884 10885 10889 10893 10896 10901 10906 10910 10916 10921 10924 10929 10933 10937 10940 10942 10945 10949 10953 10956 10958 10960 10962 10964 10967 10970 10973 10977 10980 10981 10982 10984 10985 10986 10987 10987 10988 10988 10986 10986 10989 10993 10995 10996 10997 10998 11000 11001 11002 11003 11004 11004 11005 11006 11007 11007 11008 11009 11009 11010 11011 11011
10870 10870 10870 10877 10885 10890 10895 10900 10904 10911 10915 10918 10922 10926 10930 10933 10936 10938 10942 10946 10949 10951 10953 10955 10957 10960 10964 10968 10972 10975 10976 10977 10979 10981 10981 10982 10983 10983 10983 10983 10983 10984 10987 10990 10992 10993 10995 10996 10997 10999 11000 11001 11002 11002 11003 11003 11004 11004 11005 11006 11007 11008 11009
10857 10857 10858 10867 10875 10881 10888 10893 10898 10904 10909 10911 10915 10919 10923 10927 10929 10931 10934 10937 10940 10942 10945 10948 10951 10955 10959 10962 10966 10969 10970 10971 10974 10976 10976 10978 10978 10978 10979 10981 10982 10983 10984 10985 10988 10990 10992 10993 10994 10995 10997 10998 10999 10999 11000 11000 11000 11000 11001 11002 11003 11004 11005
10847 10848 10853 10861 10866 10872 10880 10886 10891 10897 10902 10905 10908 10912 10916 10919 10922 10924 10926 10928 10931 10933 10936 10941 10945 10949 10953 10956 10960 10963 10964 10966 10968 10970 10972 10973 10973 10975 10976 10977 10978 10980 10981 10982 10983 10986 10989 10990 10990 10991 10992 10993 10994 10996 10997 10997 10997 10997 10998 10999 11000 11001 11002
10835 10839 10846 10854 10859 10865 10872 10878 10884 10890 10895 10898 10901 10904 10908 10911 10914 10916 10918 10920 10922 10925 10929 10933 10938 10942 10946 10950 10954 10957 10958 10960 10962 10964 10966 10967 10969 10970 10972 10972 10973 10974 10976 10978 10979 10980 10982 10984 10985 10987 10988 10989 10990 10991 10993 10994 10994 10994 10995 10995 10996 10997 10998
10822 10828 10837 10845 10851 10858 10864 10869 10875 10881 10886 10890 10893 10896 10900 10902 10905 10908 10910 10913 10916 10919 10923 10927 10931 10935 10939 10943 10947 10950 10952 10954 10956 10957 10960 10962 10964 10965 10966 10967 10968 10969 10971 10973 10974 10974 10975 10977 10979 10982 10983 10984 10985 10986 10988 10989 10990 10992 10992 10992 10992 10993 10994
10811 10819 10827 10834 10842 10849 10855 10860 10865 10871 10877 10881 10884 10888 10892 10895 10898 10901 10903 10906 10909 10913 10917 10921 10925 10929 10932 10936 10940 10943 10946 10948 10950 10952 10954 10956 10958 10960 10962 10963 10965 10966 10967 10968 10968 10969 10970 10971 10973 10976 10978 10979 10980 10982 10983 10984 10985 10987 10988 10988 10988 10989 10989
10800 10809 10817 10824 10831 10838 10844 10849 10855 10860 10866 10871 10875 10879 10883 10887 10890 10893 10896 10900 10903 10907 10912 10916 10919 10922 10926 10929 10932 10936 10939 10942 10944 10946 10948 10950 10952 10953 10955 10958 10960 10961 10962 10962 10963 10963 10964 10965 10967 10970 10973 10974 10975 10977 10978 10979 10979 10980 10982 10983 10984 10984 10985
10790 10799 10807 10814 10820 10827 10833 10839 10845 10850 10856 10862 10867 10871 10875 10879 10882 10885 10889 10893 10896 10900 10905 10909 10913 10916 10919 10923 10926 10929 10932 10935 10938 10940 10942 10943 10944 10945 10947 10950 10953 10955 10955 10956 10956 10957 10958 10960 10962 10964 10966 10967 10969 10971 10972 10973 10974 10975 10977 10977 10978 10978 10979
10782 10790 10798 10804 10810 10817 10823 10829 10835 10841 10847 10853 10858 10862 10867 10871 10875 10878 10882 10885 10889 10893 10898 10902 10905 10909 10912 10916 10919 10922 10925 10928 10931 10934 10935 10936 10937 10938 10940 10943 10945 10947 10947 10948 10948 10950 10952 10954 10956 10958 10959 10961 10963 10964 10965 10967 10967 10968 10971 10971 10971 10972 10973
10776 10783 10790 10796 10802 10808 10814 10819 10825 10832 10838 10844 10850 10854 10859 10863 10867 10871 10874 10877 10881 10885 10889 10894 10898 10901 10905 10908 10912 10915 10918 10920 10924 10927 10929 10929 10930 10930 10932 10935 10937 10938 10939 10940 10940 10942 10945 10947 10949 10951 10953 10954 10956 10957 10958 10960 10960 10962 10964 10965 10965 10965 10966
10769 10775 10781 10788 10794 10799 10805 10810 10816 10823 10829 10835 10841 10846 10850 10854 10858 10862 10865 10869 10872 10876 10881 10885 10889 10893 10897 10901 10904 10907 10909 10912 10917 10920 10921 10922 10922 10922 10925 10929 10931 10930 10931 10933 10934 10936 10938 10940 10942 10944 10946 10947 10948 10950 10951 10952 10953 10954 10956 10958 10958 10958 10958
10759 10765 10772 10779 10785 10790 10796 10801 10807 10813 10820 10827 10833 10838 10841 10846 10850 10853 10857 10860 10864 10868 10872 10876 10881 10885 10889 10892 10896 10899 10901 10904 10908 10912 10914 10915 10914 10914 10917 10921 10923 10922 10922 10925 10928 10930 10931 10933 10934 10937 10939 10939 10940 10941 10943 10945 10947 10947 10948 10950 10951 10951 10952
10749 10756 10763 10769 10776 10781 10786 10792 10798 10805 10812 10819 10825 10829 10833 10837 10841 10845 10848 10851 10855 10859 10863 10867 10872 10876 10879 10883 10886 10890 10893 10895 10898 10902 10905 10906 10906 10906 10909 10912 10913 10913 10914 10917 10920 10922 10924 10925 10927 10929 10931 10931 10932 10934 10936 10938 10939 10939 10940 10941 10943 10944 10945
10740 10747 10754 10760 10766 10772 10777 10784 10791 10797 10804 10810 10815 10819 10823 10828 10832 10835 10839 10842 10846 10849 10853 10858 10862 10866 10870 10873 10876 10879 10882 10885 10888 10891 10894 10896 10897 10898 10900 10902 10904 10905 10907 10909 10912 10914 10916 10918 10919 10921 10923 10924 10924 10926 10928 10929 10930 10931 10932 10932 10934 10936 10937
10731 10738 10745 10751 10756 10762 10768 10775 10782 10788 10794 10798 10803 10808 10812 10817 10821 10825 10829 10833 10836 10840 10844 10848 10852 10856 10860 10863 10866 10869 10872 10875 10878 10880 10883 10885 10887 10889 10891 10893 10895 10896 10899 10901 10904 10906 10908 10910 10912 10913 10915 10916 10917 10919 10920 10920 10921 10922 10923 10923 10924 10927 10929
10722 10729 10735 10741 10746 10752 10758 10765 10772 10779 10784 10788 10793 10797 10802 10806 10810 10815 10819 10823 10826 10830 10834 10838 10842 10846 10850 10853 10856 10859 10861 10864 10867 10870 10872 10875 10878 10880 10882 10884 10885 10887 10890 10893 10895 10897 10900 10901 10903 10905 10907 10908 10909 10910 10911 10911 10911 10912 10913 10914 10916 10918 10921
10713 10719 10725 10731 10737 10742 10749 10756 10763 10769 10775 10779 10783 10787 10792 10796 10800 10804 10809 10813 10817 10820 10824 10828 10832 10836 10840 10843 10846 10849 10852 10854 10857 10859 10862 10865 10868 10870 10873 10875 10876 10878 10880 10883 10885 10888 10890 10892 10894 10896 10898 10899 10900 10901 10902 10902 10902 10903 10905 10907 10909 10911 10913
10705 10710 10716 10722 10727 10733 10740 10747 10753 10759 10764 10769 10774 10778 10782 10786 10790 10794 10798 10803 10807 10811 10814 10818 10822 10825 10829 10833 10836 10839 10842 10844 10847 10849 10852 10854 10857 10860 10862 10865 10866 10868 10870 10872 10875 10877 10879 10882 10884 10886 10888 10889 10890 10891 10893 10893 10893 10894 10896 10897 10899 10901 10903
10696 10702 10707 10712 10718 10725 10732 10737 10743 10748 10754 10759 10764 10768 10771 10775 10779 10783 10787 10792 10797 10801 10805 10808 10811 10815 10818 10822 10825 10828 10831 10834 10836 10838 10840 10843 10846 10848 10851 10854 10856 10858 10860 10862 10864 10866 10868 10870 10873 10875 10877 10879 10880 10881 10883 10883 10884 10885 10886 10887 10888 10890 10892
10688 10693 10698 10703 10709 10716 10722 10728 10733 10738 10744 10749 10753 10758 10761 10765 10768 10772 10776 10781 10785 10790 10794 10797 10801 10804 10807 10810 10814 10817 10820 10822 10825 10827 10829 10832 10834 10837 10839 10842 10844 10847 10850 10852 10854 10856 10857 10859 10861 10864 10866 10868 10869 10871 10872 10873 10874 10875 10876 10877 10878 10879 10881
10681 10686 10690 10695 10701 10707 10713 10718 10724 10729 10734 10738 10743 10747 10750 10754 10758 10761 10765 10769 10773 10778 10782 10786 10789 10792 10795 10798 10801 10805 10808 10810 10813 10815 10817 10819 10822 10824 10827 10830 10832 10835 10838 10841 10843 10845 10847 10848 10849 10851 10854 10856 10858 10859 10861 10863 10864 10865 10866 10867 10868 10869 10870